Location: A�t �Alizem
(31.2076°N, 8.7872°W)
Time: 11:14:51
(UTC+00:00)

Envisat - Pass Details

Date: 06 October 2021
Orbit: 764 x 766 km, 98.2° (Epoch: 20 October)

Event Time Altitude Azimuth Distance (km) Brightness Sun altitude
Rises 05:31:14 0° 14° (NNE) 3,232 6.5 -13.8°
Reaches altitude 10° 05:33:33 10° 15° (NNE) 2,303 5.7 -13.3°
Maximum altitude 05:38:38 77° 102° (ESE) 786 3.2 -12.2°
Drops below altitude 10° 05:43:40 10° 188° (S) 2,290 5.4 -11.2°
Sets 05:45:58 0° 190° (S) 3,212 6.1 -10.7°
